User: anonymous   Login
Location: Unspecified
(0.0000°N, 0.0000°E)
Time: 11:02:24
(UTC+00:00)
Language:

EO-88 - Orbit

View from above orbital plane
View from above orbital plane
View from above satellite
View from above satellite

Ground track
Ground track

The orbit data is extracted from the following two-line orbital elements,

1 42017U 17008BX  19348.61272744  .00001178  00000-0  48641-4 0  9992
2 42017  97.3842  53.7048 0004654 254.0021 106.0705 15.25974314157204
Epoch (UTC): 14 December 2019 14:42:19
Eccentricity: 0.0004654
inclination: 97.3842°
perigee height: 484 km
apogee height: 491 km
right ascension of ascending node: 53.7048°
argument of perigee: 254.0021°
revolutions per day: 15.25974314
mean anomaly at epoch: 106.0705°
orbit number at epoch: 15720

The dashed part of the orbit path shows where the satellite is in the earth's shadow,  

DLR